Find KUIPER-00375

NORAD ID: 68868 Int'l Des: 2026-095E Owner: kuiper Country: USA Constellation: kuiper operational
LEOCIRCULAR

Live Position

Loading 3D Globe...

About KUIPER-00375

Description loading...

Upcoming Passes

Passes for default location (London). Set your location on the main map for personalized predictions.

Altitude History

Loading altitude history...

Two-Line Element Set

1 68868U 26095E 26120.66670139 -.00007675 00000-0 -19066-3 0 9999
2 68868 51.8822 112.1357 0001620 83.5447 101.9627 15.38205430 1608
Epoch: Apr 30, 2026 • Age: 31 hours

Current Status

Altitude 456.2 km
Velocity 7.65 km/s
Sub-Earth Point 50.50°N, 23.59°W
Type internet

Most Searched